Location: Sommers-Bausch Observatory
(40.0037°N, 105.2635°W)
Time: 06:38:10
(UTC-06:00)

Amateur Radio Satellites - All Passes

Search period start: 29 August 2015 06:08
Search period end: 30 August 2015 06:08
Location: Sommers-Bausch Observatory, 40.0037°N, 105.2635°W

Satellite Date Start Highest point End Downlink Frequencies (MHz)
Time Altitude Azimuth
AO-7 29 Aug 06:14:25 06:22:14 47° 296° (WNW) 06:29:57 29.400- 29.500
JAS-2 29 Aug 06:27:36 06:29:50 11° 308° (NW) 06:31:35 435.910
CUBESAT XI-V 29 Aug 06:33:03 06:37:38 70° 259° (W) 06:42:14 437.345
PRISM 29 Aug 06:43:32 06:46:54 26° 70° (ENE) 06:50:21 437.425
STRAND 1 29 Aug 06:46:30 06:51:19 45° 71° (ENE) 06:56:11 437.568
CUTE-I 29 Aug 06:49:47 06:54:39 37° 97° (E) 06:59:35 437.470
PHONESAT 2.4 29 Aug 07:25:38 07:28:48 36° 157° (SSE) 07:31:58 2401.200-2431.200
Cosmos 2499 29 Aug 07:34:20 07:38:46 14° 304° (NW) 07:42:43 435.465 / 435.565
VERMONT LUNAR 29 Aug 07:40:13 07:43:13 78° 2° (N) 07:46:12 437.305
Cubesat XI-IV 29 Aug 07:43:33 07:48:51 71° 287° (WNW) 07:54:09 437.490
GOMX 1 29 Aug 07:45:35 07:48:38 16° 88° (E) 07:51:57 467.674
YUBILEINY 29 Aug 07:59:56 08:07:47 35° 70° (ENE) 08:15:44 435.215
DOVE 4 29 Aug 08:13:39 08:16:59 17° 89° (E) 08:20:33 437.250
AIST 1 29 Aug 08:17:10 08:20:55 32° 92° (E) 08:24:44
PRISM 29 Aug 08:18:55 08:22:18 24° 265° (W) 08:25:36 437.425
STRAND 1 29 Aug 08:26:57 08:30:47 20° 268° (W) 08:34:28 437.568
CUTE-I 29 Aug 08:30:08 08:34:37 28° 293° (WNW) 08:39:00 437.470
BRITE-PL 29 Aug 08:37:36 08:43:05 78° 101° (E) 08:48:47 437.365/2234.400
CUTE 1.7 + AOD 2 29 Aug 08:37:49 08:40:21 16° 91° (E) 08:43:03 437.475
HO-68 29 Aug 08:44:57 08:51:03 30° 94° (E) 08:57:17 435.675
Cosmos 2491 29 Aug 08:46:04 08:53:28 34° 86° (E) 09:01:05 435.465 / 435.565
CANX-2 29 Aug 08:50:36 08:54:05 25° 94° (E) 08:57:36 2200.000
M-CUBED/EXP-1 PRIME 29 Aug 08:59:20 09:00:50 12° 57° (ENE) 09:02:34 437.505
PHONESAT 2.4 29 Aug 09:03:08 09:06:32 87° 351° (N) 09:09:57 2401.200-2431.200
SO-50 29 Aug 09:09:54 09:11:20 11° 33° (NNE) 09:12:57 436.795
VERMONT LUNAR 29 Aug 09:16:42 09:19:37 51° 198° (SSW) 09:22:32 437.305
SEEDS 29 Aug 09:17:09 09:20:59 35° 97° (E) 09:24:50 437.485
CINEMA 3 29 Aug 09:20:04 09:24:34 32° 95° (E) 09:28:59 145.822/145.860
Cosmos 2504 29 Aug 09:20:33 09:24:36 14° 57° (ENE) 09:29:06 435.465 / 435.565
GOMX 1 29 Aug 09:21:51 09:27:15 68° 285° (WNW) 09:32:42 467.674
CUBEBUG 2 29 Aug 09:31:03 09:34:11 18° 90° (E) 09:37:26 437.445
ISS 29 Aug 09:41:21 09:44:17 33° 136° (SE) 09:47:16 145.825
COMPASS 1 29 Aug 09:43:49 09:47:55 56° 100° (E) 09:51:59 437.405
UWE-3 29 Aug 09:44:08 09:47:20 19° 91° (E) 09:50:36 435.000/436.395/437.385
ZACube-1 29 Aug 09:44:38 09:46:51 14° 89° (E) 09:49:15 437.345
DOVE 4 29 Aug 09:49:55 09:55:08 59° 286° (WNW) 10:00:20 437.250
FUNcube-1 29 Aug 09:51:02 09:53:41 16° 90° (E) 09:56:29 145.935
UNISAT 6 29 Aug 09:52:21 09:56:03 24° 68° (ENE) 09:59:52 437.425
AIST 1 29 Aug 09:55:33 09:58:41 19° 288° (WNW) 10:01:42
YUBILEINY 29 Aug 09:56:30 10:04:56 50° 270° (W) 10:13:14 435.215
AAUSAT CUBESAT 2 29 Aug 09:56:37 10:00:45 67° 100° (E) 10:04:51 437.432
POLYITAN 1 29 Aug 10:02:54 10:03:04 10° 63° (ENE) 10:03:29 437.675
POPSAT HIP 1 29 Aug 10:05:56 10:06:49 11° 64° (ENE) 10:07:57 437.405
DUCHIFAT 1 29 Aug 10:08:49 10:09:55 11° 64° (ENE) 10:11:15 145.980
CUTE 1.7 + AOD 2 29 Aug 10:12:31 10:16:30 40° 287° (WNW) 10:20:25 437.475
BRITE-PL 29 Aug 10:17:56 10:21:04 15° 296° (WNW) 10:24:01 437.365/2234.400
QB50P2 29 Aug 10:20:17 10:22:53 16° 67° (ENE) 10:25:38 145.880/145.840
TIGRISAT 29 Aug 10:21:16 10:25:42 45° 72° (ENE) 10:30:13 435.000
CUSAT 1 29 Aug 10:21:31 10:27:18 24° 66° (ENE) 10:33:46 437.405
NANOSAT C BR1 29 Aug 10:23:33 10:26:12 17° 67° (ENE) 10:29:01 145.865
CANX-2 29 Aug 10:26:25 10:29:59 26° 290° (WNW) 10:33:26 2200.000
AUBIESAT-1 29 Aug 10:27:47 10:32:30 72° 71° (ENE) 10:37:12 437.475
DANDE 29 Aug 10:28:37 10:33:25 19° 65° (ENE) 10:39:03 436.750
BUGSAT 1 29 Aug 10:29:17 10:30:17 11° 64° (ENE) 10:31:31 437.445
M-CUBED/EXP-1 PRIME 29 Aug 10:30:09 10:34:57 89° 70° (ENE) 10:39:46 437.505
HO-68 29 Aug 10:32:09 10:39:05 51° 292° (WNW) 10:45:56 435.675
QB50P1 29 Aug 10:35:16 10:38:34 23° 69° (ENE) 10:41:58 145.935-145.965
ANTELSAT 29 Aug 10:36:53 10:41:31 70° 76° (ENE) 10:46:14 437.575/2403.000
PHONESAT 2.4 29 Aug 10:41:04 10:44:28 86° 190° (S) 10:47:53 2401.200-2431.200
DELFI C3 29 Aug 10:41:20 10:45:17 59° 100° (E) 10:49:12 145.870
Cosmos 2491 29 Aug 10:41:40 10:50:05 50° 285° (WNW) 10:58:28 435.465 / 435.565
Oscar 11 29 Aug 10:42:21 10:46:41 86° 282° (WNW) 10:50:59 145.826/435.025
SO-50 29 Aug 10:48:07 10:53:01 59° 55° (NE) 10:57:47 436.795
UKube-1 29 Aug 10:48:44 10:50:34 13° 90° (E) 10:52:37 .
HUMSAT D 29 Aug 10:52:22 10:56:02 28° 95° (E) 10:59:42 437.325/437.525
SEEDS 29 Aug 10:53:34 10:56:34 19° 292° (WNW) 10:59:25 437.485
VERMONT LUNAR 29 Aug 10:54:22 10:55:41 12° 212° (SSW) 10:56:54 437.305
CINEMA 3 29 Aug 10:57:19 11:01:38 28° 291° (WNW) 11:05:46 145.822/145.860
CUBEBUG 2 29 Aug 11:06:38 11:11:08 44° 288° (WNW) 11:15:29 437.445
Cosmos 2504 29 Aug 11:10:07 11:18:42 74° 81° (E) 11:26:47 435.465 / 435.565
VELOX 1 29 Aug 11:10:17 11:12:58 16° 91° (E) 11:15:51 145.980
ISS 29 Aug 11:17:48 11:20:42 29° 333° (NNW) 11:23:36 145.825
ZACube-1 29 Aug 11:19:11 11:23:37 53° 286° (WNW) 11:27:55 437.345
UWE-3 29 Aug 11:19:43 11:24:04 40° 288° (WNW) 11:28:16 435.000/436.395/437.385
COMPASS 1 29 Aug 11:21:21 11:23:08 12° 295° (WNW) 11:24:44 437.405
FUNcube-1 29 Aug 11:25:59 11:30:20 46° 287° (WNW) 11:34:32 145.935
UNISAT 6 29 Aug 11:28:24 11:32:39 34° 264° (W) 11:36:56 437.425
POLYITAN 1 29 Aug 11:34:08 11:38:23 76° 258° (WSW) 11:42:42 437.675
AAUSAT CUBESAT 2 29 Aug 11:35:02 11:35:50 10° 296° (WNW) 11:36:25 437.432
PCSat 29 Aug 11:37:29 11:42:44 48° 56° (NE) 11:47:59 145.827
POPSAT HIP 1 29 Aug 11:37:56 11:42:09 70° 259° (WSW) 11:46:26 437.405
50 SAT 29 Aug 11:40:22 11:44:03 40° 98° (E) 11:47:42 437.505
DUCHIFAT 1 29 Aug 11:41:00 11:45:12 67° 259° (W) 11:49:27 145.980
ESTCUBE 1 29 Aug 11:52:50 11:56:57 35° 97° (E) 12:01:05 437.505/2401.250
QB50P2 29 Aug 11:54:24 11:58:27 43° 262° (W) 12:02:32 145.880/145.840
NANOSAT C BR1 29 Aug 11:57:43 12:01:44 41° 262° (W) 12:05:46 145.865
TIGRISAT 29 Aug 11:59:31 12:02:42 18° 269° (W) 12:05:47 435.000
BUGSAT 1 29 Aug 12:01:15 12:05:15 62° 259° (W) 12:09:20 437.445
CUSAT 1 29 Aug 12:02:52 12:10:29 76° 263° (W) 12:18:44 437.405
DX 1 29 Aug 12:05:38 12:10:02 77° 284° (WNW) 12:14:25 434.975-435.025
AUBIESAT-1 29 Aug 12:05:39 12:07:41 12° 267° (W) 12:09:27 437.475
DANDE 29 Aug 12:09:56 12:17:19 89° 79° (E) 12:25:51 436.750
QB50P1 29 Aug 12:10:33 12:14:17 29° 264° (W) 12:18:01 145.935-145.965
AISAT 29 Aug 12:16:16 12:20:46 90° 346° (NNW) 12:25:16 437.250
ANTELSAT 29 Aug 12:17:13 12:18:53 11° 273° (W) 12:20:14 437.575/2403.000
DELFI C3 29 Aug 12:18:45 12:19:53 11° 295° (WNW) 12:20:49 145.870
PHONESAT 2.4 29 Aug 12:19:08 12:22:10 30° 206° (SSW) 12:25:11 2401.200-2431.200
UKube-1 29 Aug 12:22:49 12:27:05 54° 287° (WNW) 12:31:19 .
CUBEBUG 1 29 Aug 12:25:35 12:30:00 68° 102° (ESE) 12:34:25 437.445
HUMSAT D 29 Aug 12:28:14 12:31:39 23° 291° (WNW) 12:34:56 437.325/437.525
SO-50 29 Aug 12:29:58 12:33:07 17° 250° (WSW) 12:36:01 436.795
SPROUT 29 Aug 12:32:37 12:36:06 24° 94° (E) 12:39:40 437.525
VELOX 1 29 Aug 12:45:31 12:49:48 45° 288° (WNW) 12:54:02 145.980
GONETS M04 29 Aug 12:48:09 12:52:57 16° 59° (ENE) 12:58:18
ISS 29 Aug 12:56:39 12:57:55 12° 352° (N) 12:59:09 145.825
Cosmos 2504 29 Aug 13:03:51 13:10:04 22° 279° (W) 13:15:42 435.465 / 435.565
JAS-2 29 Aug 13:08:42 13:11:33 13° 54° (NE) 13:14:55 435.910
50 SAT 29 Aug 13:16:06 13:18:15 14° 293° (WNW) 13:20:15 437.505
PCSat 29 Aug 13:21:37 13:25:53 23° 252° (WSW) 13:29:58 145.827
ESTCUBE 1 29 Aug 13:30:10 13:33:38 21° 292° (WNW) 13:36:58 437.505/2401.250
Oscar 19 29 Aug 13:33:32 13:38:40 77° 76° (ENE) 13:43:53 437.125/150
AO-7 29 Aug 13:34:42 13:36:36 11° 45° (NE) 13:39:02 29.400- 29.500
SWISSCUBE 29 Aug 13:46:01 13:48:48 16° 91° (E) 13:51:48 437.505
TISAT 1 29 Aug 13:46:58 13:51:17 86° 278° (W) 13:55:32 437.305
CUSAT 1 29 Aug 13:48:05 13:52:17 15° 276° (W) 13:56:06 437.405
Gurwin Techsat 1B 29 Aug 13:53:12 13:58:00 37° 70° (ENE) 14:02:52 435.225
DANDE 29 Aug 13:54:53 14:00:00 19° 273° (W) 14:05:03 436.750
CUBEBUG 1 29 Aug 14:04:09 14:05:51 12° 296° (WNW) 14:07:20 437.445
SPROUT 29 Aug 14:08:25 14:12:11 29° 290° (WNW) 14:15:53 437.525
ITUPSAT 1 29 Aug 14:22:02 14:26:20 34° 97° (E) 14:30:40 437.325
ITAMSAT 1 29 Aug 14:26:31 14:31:36 62° 73° (ENE) 14:36:43 435.822/435.867
ISS 29 Aug 14:33:46 14:35:24 13° 12° (NNE) 14:37:04 145.825
GONETS M04 29 Aug 14:42:41 14:51:33 81° 82° (E) 15:00:23
JAS-2 29 Aug 14:47:47 14:55:11 60° 71° (ENE) 15:02:56 435.910
BEESAT 29 Aug 14:56:42 15:01:29 80° 101° (E) 15:06:14 436.000
BEESAT 3 29 Aug 15:00:14 15:02:53 17° 112° (ESE) 15:05:41 437.485
BEESAT 2 29 Aug 15:08:31 15:10:59 16° 111° (ESE) 15:13:37 435.950
KKS-1 29 Aug 15:14:27 15:17:38 19° 92° (E) 15:20:56 437.445
Oscar 19 29 Aug 15:16:39 15:18:44 12° 273° (W) 15:20:29 437.125/150
AO-7 29 Aug 15:19:44 15:27:40 52° 65° (ENE) 15:35:40 29.400- 29.500
SWISSCUBE 29 Aug 15:22:24 15:27:01 51° 288° (WNW) 15:31:36 437.505
RS-15 29 Aug 15:22:38 15:30:25 25° 103° (ESE) 15:38:55 29.354- 29.394
HORYU 2 29 Aug 15:22:47 15:26:30 26° 69° (ENE) 15:30:17 437.375
Cosmos 2499 29 Aug 15:27:52 15:36:05 44° 73° (ENE) 15:43:52 435.465 / 435.565
Gurwin Techsat 1B 29 Aug 15:33:34 15:38:04 27° 266° (W) 15:42:31 435.225
ITUPSAT 1 29 Aug 16:00:11 16:04:06 25° 292° (WNW) 16:07:53 437.325
ITAMSAT 1 29 Aug 16:08:32 16:11:37 15° 270° (W) 16:14:26 435.822/435.867
ISS 29 Aug 16:09:21 16:12:28 42° 31° (NNE) 16:15:34 145.825
JAS-2 29 Aug 16:34:13 16:40:40 29° 270° (W) 16:47:09 435.910
BEESAT 3 29 Aug 16:36:41 16:40:32 40° 307° (NW) 16:44:25 437.485
BEESAT 29 Aug 16:37:04 16:38:44 11° 298° (WNW) 16:40:09 436.000
STARS 29 Aug 16:37:52 16:42:21 87° 284° (WNW) 16:46:48 437.465
GONETS M04 29 Aug 16:41:24 16:47:29 20° 279° (W) 16:53:07
MOZHAYETS 4 29 Aug 16:44:04 16:47:50 26° 94° (E) 16:51:41
BEESAT 2 29 Aug 16:44:46 16:48:43 44° 306° (NW) 16:52:41 435.950
KKS-1 29 Aug 16:50:15 16:54:25 38° 289° (WNW) 16:58:33 437.445
HORYU 2 29 Aug 16:59:08 17:03:03 28° 264° (W) 17:06:56 437.375
AIST 2 29 Aug 17:03:06 17:07:15 56° 118° (ESE) 17:11:26 435.215
AO-7 29 Aug 17:13:11 17:20:45 36° 264° (W) 17:28:09 29.400- 29.500
Cosmos 2499 29 Aug 17:21:15 17:29:11 40° 273° (W) 17:36:30 435.465 / 435.565
Cubesat XI-IV 29 Aug 17:26:30 17:30:32 23° 65° (ENE) 17:34:42 437.490
RS-15 29 Aug 17:30:39 17:41:37 83° 304° (NW) 17:53:03 29.354- 29.394
ISS 29 Aug 17:46:12 17:48:42 20° 227° (SW) 17:51:07 145.825
CUTE-I 29 Aug 18:10:54 18:16:06 57° 73° (ENE) 18:21:19 437.470
MOZHAYETS 4 29 Aug 18:21:06 18:25:05 29° 290° (WNW) 18:28:57
CUBESAT XI-V 29 Aug 18:30:36 18:34:39 30° 95° (E) 18:38:46 437.345
AIST 2 29 Aug 18:43:18 18:46:11 17° 316° (NW) 18:48:59 435.215
GOMX 1 29 Aug 18:54:35 18:56:27 13° 62° (ENE) 18:58:36 467.674
Cosmos 2491 29 Aug 18:57:47 19:02:24 16° 58° (ENE) 19:07:34 435.465 / 435.565
STRAND 1 29 Aug 18:58:53 19:01:50 16° 90° (E) 19:05:00 437.568
Cubesat XI-IV 29 Aug 19:05:16 19:10:22 45° 261° (W) 19:15:29 437.490
HO-68 29 Aug 19:14:01 19:19:09 23° 59° (ENE) 19:24:31 435.675
DOVE 4 29 Aug 19:19:37 19:22:00 14° 63° (ENE) 19:24:39 437.250
CUTE 1.7 + AOD 2 29 Aug 19:31:25 19:32:52 12° 65° (ENE) 19:34:33 437.475
CANX-2 29 Aug 19:43:30 19:46:21 18° 68° (ENE) 19:49:20 2200.000
RS-15 29 Aug 19:46:45 19:56:08 29° 331° (NNW) 20:05:40 29.354- 29.394
BRITE-PL 29 Aug 19:48:27 19:52:43 78° 76° (ENE) 19:57:19 437.365/2234.400
CUTE-I 29 Aug 19:53:05 19:56:37 17° 270° (W) 19:59:56 437.470
PRISM 29 Aug 20:00:45 20:04:41 45° 99° (E) 20:08:39 437.425
AIST 1 29 Aug 20:01:40 20:06:00 86° 267° (W) 20:10:21
O/OREOS (USA 219) 29 Aug 20:02:37 20:07:08 77° 292° (WNW) 20:11:43 437.305
CUBESAT XI-V 29 Aug 20:08:08 20:12:00 26° 291° (WNW) 20:15:48 437.345
SEEDS 29 Aug 20:08:47 20:12:09 24° 70° (ENE) 20:15:36 437.485
CINEMA 3 29 Aug 20:21:13 20:25:04 27° 69° (ENE) 20:29:10 145.822/145.860
CUBEBUG 2 29 Aug 20:29:12 20:31:47 15° 65° (ENE) 20:34:35 437.445
GOMX 1 29 Aug 20:29:36 20:33:58 66° 260° (W) 20:38:41 467.674
COMPASS 1 29 Aug 20:34:14 20:38:03 35° 72° (ENE) 20:41:55 437.405
STRAND 1 29 Aug 20:36:28 20:41:29 58° 287° (WNW) 20:46:29 437.568
ZACube-1 29 Aug 20:41:05 20:42:29 12° 63° (ENE) 20:44:08 437.345
UWE-3 29 Aug 20:41:11 20:43:48 16° 65° (ENE) 20:46:40 435.000/436.395/437.385
AAUSAT CUBESAT 2 29 Aug 20:46:29 20:50:24 40° 73° (ENE) 20:54:21 437.432
FUNcube-1 29 Aug 20:46:59 20:48:57 13° 64° (ENE) 20:51:08 145.935
Cosmos 2491 29 Aug 20:52:14 21:01:02 80° 82° (E) 21:09:50 435.465 / 435.565
DOVE 4 29 Aug 20:54:46 20:59:13 60° 260° (W) 21:03:59 437.250
HO-68 29 Aug 20:59:08 21:06:16 73° 256° (WSW) 21:13:29 435.675
YUBILEINY 29 Aug 21:00:02 21:07:56 41° 88° (E) 21:16:02 435.215
CUTE 1.7 + AOD 2 29 Aug 21:04:03 21:08:18 64° 260° (W) 21:12:35 437.475
CANX-2 29 Aug 21:17:58 21:22:01 39° 263° (W) 21:26:03 2200.000
DELFI C3 29 Aug 21:27:42 21:31:19 32° 72° (ENE) 21:34:58 145.870
Oscar 11 29 Aug 21:36:06 21:40:25 66° 75° (ENE) 21:44:45 145.826/435.025
PRISM 29 Aug 21:37:25 21:39:47 15° 294° (WNW) 21:42:01 437.425
HUMSAT D 29 Aug 21:43:45 21:46:53 20° 68° (ENE) 21:50:07 437.325/437.525
SEEDS 29 Aug 21:44:08 21:47:51 28° 265° (W) 21:51:30 437.485
UKube-1 29 Aug 21:44:12 21:45:16 11° 63° (ENE) 21:46:35 .
CINEMA 3 29 Aug 21:58:04 22:02:10 30° 266° (W) 22:06:24 145.822/145.860
CUBEBUG 2 29 Aug 22:03:29 22:08:01 57° 261° (W) 22:12:40 437.445
RS-15 29 Aug 22:06:08 22:13:52 20° 6° (N) 22:21:56 29.354- 29.394
VELOX 1 29 Aug 22:08:04 22:10:18 14° 65° (ENE) 22:12:43 145.980
COMPASS 1 29 Aug 22:10:50 22:13:51 18° 268° (W) 22:16:45 437.405
ZACube-1 29 Aug 22:13:44 22:18:15 75° 259° (W) 22:22:51 437.345
UWE-3 29 Aug 22:15:25 22:19:54 54° 261° (W) 22:24:29 435.000/436.395/437.385
FUNcube-1 29 Aug 22:20:16 22:24:45 65° 259° (W) 22:29:20 145.935
50 SAT 29 Aug 22:23:31 22:26:32 22° 69° (ENE) 22:29:38 437.505
AAUSAT CUBESAT 2 29 Aug 22:23:33 22:26:13 16° 269° (W) 22:28:43 437.432
ANTELSAT 29 Aug 22:31:07 22:33:44 15° 89° (E) 22:36:31 437.575/2403.000
Cosmos 2491 29 Aug 22:50:56 22:57:01 20° 279° (W) 23:02:40 435.465 / 435.565
ESTCUBE 1 29 Aug 22:51:57 22:55:51 31° 70° (ENE) 22:59:49 437.505/2401.250
HO-68 29 Aug 22:53:31 22:55:25 11° 276° (W) 22:56:39 435.675
YUBILEINY 29 Aug 22:56:30 23:04:46 43° 287° (WNW) 23:13:01 435.215
DX 1 29 Aug 23:00:18 23:04:37 85° 76° (ENE) 23:08:59 434.975-435.025
DELFI C3 29 Aug 23:03:33 23:06:29 18° 268° (W) 23:09:16 145.870
AISAT 29 Aug 23:13:05 23:17:28 74° 75° (ENE) 23:21:54 437.250
Oscar 11 29 Aug 23:16:21 23:17:07 10° 272° (W) 23:17:36 145.826/435.025
UKube-1 29 Aug 23:16:35 23:20:52 70° 257° (WSW) 23:25:12 .
HUMSAT D 29 Aug 23:18:25 23:22:23 35° 263° (W) 23:26:22 437.325/437.525
BEESAT 3 29 Aug 23:19:28 23:20:52 12° 39° (NE) 23:22:24 437.485
UNISAT 6 29 Aug 23:20:41 23:25:12 54° 100° (E) 23:29:36 437.425
CUBEBUG 1 29 Aug 23:20:58 23:25:08 50° 73° (ENE) 23:29:21 437.445
POLYITAN 1 29 Aug 23:21:03 23:24:03 19° 92° (E) 23:27:10 437.675
POPSAT HIP 1 29 Aug 23:24:29 23:27:36 20° 93° (E) 23:30:50 437.405
SPROUT 29 Aug 23:26:46 23:29:36 18° 67° (ENE) 23:32:35 437.525
DUCHIFAT 1 29 Aug 23:26:59 23:30:09 20° 93° (E) 23:33:23 145.980
BEESAT 2 29 Aug 23:28:20 23:29:29 11° 39° (NE) 23:30:47 435.950
Cosmos 2504 29 Aug 23:38:28 23:46:13 57° 91° (E) 23:54:31 435.465 / 435.565
QB50P2 29 Aug 23:40:20 23:44:09 31° 96° (E) 23:47:59 145.880/145.840
VELOX 1 29 Aug 23:42:07 23:46:26 54° 260° (W) 23:50:46 145.980
NANOSAT C BR1 29 Aug 23:43:08 23:46:59 31° 96° (E) 23:50:49 145.865
AUBIESAT-1 29 Aug 23:44:15 23:48:11 58° 105° (ESE) 23:51:48 437.475
BUGSAT 1 29 Aug 23:44:38 23:47:43 20° 93° (E) 23:50:55 437.445
M-CUBED/EXP-1 PRIME 29 Aug 23:47:17 23:51:22 78° 107° (ESE) 23:55:04 437.505
TIGRISAT 29 Aug 23:50:09 23:54:47 76° 284° (WNW) 23:59:14 435.000
QB50P1 29 Aug 23:55:38 23:59:46 45° 98° (E) 00:03:53 145.935-145.965
50 SAT 29 Aug 23:57:31 00:00:56 27° 265° (W) 00:04:18 437.505
ANTELSAT 30 Aug 00:06:25 00:10:52 48° 287° (WNW) 00:15:11 437.575/2403.000
RS-15 30 Aug 00:20:25 00:31:01 38° 38° (NE) 00:42:11 29.354- 29.394
ESTCUBE 1 30 Aug 00:29:05 00:32:45 24° 266° (W) 00:36:20 437.505/2401.250
TISAT 1 30 Aug 00:38:06 00:42:14 63° 75° (ENE) 00:46:26 437.305
SWISSCUBE 30 Aug 00:52:08 00:55:17 18° 66° (ENE) 00:58:36 437.505
BEESAT 3 30 Aug 00:55:22 00:59:25 86° 240° (WSW) 01:03:23 437.485
POLYITAN 1 30 Aug 00:56:07 01:00:06 36° 288° (WNW) 01:04:01 437.675
UNISAT 6 30 Aug 00:58:48 01:01:33 15° 295° (WNW) 01:04:05 437.425
CUBEBUG 1 30 Aug 00:59:38 01:01:52 13° 270° (W) 01:03:53 437.445
POPSAT HIP 1 30 Aug 00:59:40 01:03:35 34° 289° (WNW) 01:07:26 437.405
SPROUT 30 Aug 01:01:22 01:05:24 39° 262° (W) 01:09:27 437.525
DUCHIFAT 1 30 Aug 01:02:09 01:06:01 33° 289° (WNW) 01:09:50 145.980
SO-50 30 Aug 01:02:39 01:06:15 22° 111° (ESE) 01:10:04 436.795
BEESAT 2 30 Aug 01:04:08 01:08:12 88° 56° (NE) 01:12:12 435.950
CUSAT 1 30 Aug 01:10:15 01:13:49 52° 285° (WNW) 01:18:32 437.405
QB50P2 30 Aug 01:16:30 01:19:53 22° 292° (WNW) 01:23:10 145.880/145.840
NANOSAT C BR1 30 Aug 01:19:18 01:22:38 22° 292° (WNW) 01:25:52 145.865
BUGSAT 1 30 Aug 01:19:25 01:23:16 33° 289° (WNW) 01:27:05 437.445
AUBIESAT-1 30 Aug 01:20:53 01:22:21 12° 302° (WNW) 01:23:37 437.475
DANDE 30 Aug 01:22:45 01:25:57 63° 283° (WNW) 01:30:09 436.750
AIST 2 30 Aug 01:25:35 01:29:19 31° 50° (NE) 01:33:01 435.215
ITUPSAT 1 30 Aug 01:28:11 01:32:32 37° 71° (ENE) 01:36:57 437.325
Cosmos 2504 30 Aug 01:31:56 01:38:59 30° 292° (WNW) 01:46:10 435.465 / 435.565
QB50P1 30 Aug 01:32:35 01:35:18 16° 294° (WNW) 01:37:51 145.935-145.965
Oscar 19 30 Aug 01:46:15 01:50:41 28° 95° (E) 01:55:09 437.125/150
GONETS M04 30 Aug 01:50:17 01:55:17 18° 80° (E) 02:00:48
BEESAT 30 Aug 02:02:20 02:07:06 85° 75° (ENE) 02:11:54 436.000
Gurwin Techsat 1B 30 Aug 02:11:17 02:14:06 15° 89° (E) 02:17:11 435.225
KKS-1 30 Aug 02:12:31 02:15:22 17° 66° (ENE) 02:18:22 437.445
TISAT 1 30 Aug 02:17:55 02:18:30 10° 272° (W) 02:18:50 437.305
PCSat 30 Aug 02:18:22 02:23:32 50° 114° (ESE) 02:28:48 145.827
SWISSCUBE 30 Aug 02:28:12 02:32:49 48° 261° (W) 02:37:26 437.505
RS-15 30 Aug 02:32:49 02:44:41 75° 242° (WSW) 02:56:51 29.354- 29.394
ITAMSAT 1 30 Aug 02:40:41 02:44:41 23° 93° (E) 02:48:48 435.822/435.867
SO-50 30 Aug 02:41:56 02:46:31 44° 308° (NW) 02:51:16 436.795
AIST 2 30 Aug 03:04:20 03:07:46 24° 247° (WSW) 03:11:05 435.215
ITUPSAT 1 30 Aug 03:06:46 03:10:34 22° 267° (W) 03:14:14 437.325
AO-7 30 Aug 03:24:21 03:28:21 15° 87° (E) 03:32:57 29.400- 29.500
Oscar 19 30 Aug 03:25:23 03:30:04 34° 291° (WNW) 03:34:41 437.125/150
STARS 30 Aug 03:33:46 03:38:09 76° 75° (ENE) 03:42:35 437.465
GONETS M04 30 Aug 03:42:24 03:51:06 87° 279° (W) 03:59:53
JAS-2 30 Aug 03:44:18 03:51:15 55° 98° (E) 03:57:22 435.910
MOZHAYETS 4 30 Aug 03:45:35 03:49:13 24° 68° (ENE) 03:52:55
KKS-1 30 Aug 03:47:25 03:51:41 44° 261° (W) 03:55:58 437.445
Gurwin Techsat 1B 30 Aug 03:49:22 03:54:38 65° 287° (WNW) 03:59:54 435.225
PCSat 30 Aug 04:02:48 04:07:16 25° 312° (NW) 04:11:40 145.827
Cosmos 2499 30 Aug 04:02:59 04:10:17 36° 86° (E) 04:18:07 435.465 / 435.565
ITAMSAT 1 30 Aug 04:19:31 04:24:23 42° 290° (WNW) 04:29:13 435.822/435.867
O/OREOS (USA 219) 30 Aug 04:34:54 04:38:09 19° 55° (NE) 04:41:31 437.305
RS-15 30 Aug 04:48:28 04:55:36 17° 260° (W) 05:01:50 29.354- 29.394
HORYU 2 30 Aug 04:50:13 04:54:38 56° 100° (E) 04:59:00 437.375
VERMONT LUNAR 30 Aug 04:57:42 05:00:31 39° 159° (SSE) 05:03:20 437.305
AO-7 30 Aug 05:14:13 05:22:34 82° 106° (ESE) 05:30:52 29.400- 29.500
MOZHAYETS 4 30 Aug 05:22:05 05:26:17 33° 264° (W) 05:30:26
JAS-2 30 Aug 05:29:59 05:35:51 27° 298° (WNW) 05:41:02 435.910
CUBESAT XI-V 30 Aug 05:33:34 05:37:24 28° 70° (ENE) 05:41:20 437.345
GONETS M04 30 Aug 05:43:53 05:49:30 17° 300° (WNW) 05:54:42
